,,Stat6,,Stat2,,Stat8,,Stat9,,Stat10,,Wind1,,Wind1,
time,status,PA1M_AVG,status,PR1M_SUM,status,RH1M_AVG,status,SR1M_AVG,status,TA1M_AVG,status,W1dAve1m,status,W1sAve1m,
2004-07-30, 00:00:00,VALID,919.225,VALID,0,VALID,100,VALID,-0.0849042,VALID,18.6458,VALID,79,VALID,0.804688,
2004-07-30, 00:01:00,VALID,919.211,VALID,0,VALID,100,VALID,-0.0849042,VALID,18.7692,VALID,74,VALID,0.750195,
2004-07-30, 00:02:00,VALID,919.199,VALID,0,VALID,100,VALID,-0.0849042,VALID,18.8338,VALID,72,VALID,0.624818,
2004-07-30, 00:03:00,VALID,919.169,VALID,0,VALID,100,VALID,-0.101885,VALID,18.8658,VALID,72,VALID,0.414648,
2004-07-30, 00:04:00,VALID,919.165,VALID,0,VALID,100,VALID,-0.0849042,VALID,18.885,VALID,76,VALID,0.596701,
2004-07-30, 00:05:00,VALID,919.163,VALID,0,VALID,100,VALID,-0.101885,VALID,18.9272,VALID,79,VALID,0.552455,
2004-07-30, 00:06:00,VALID,919.149,VALID,0,VALID,100,VALID,-0.118866,VALID,18.9431,VALID,81,VALID,0.647347,
2004-07-30, 00:07:00,VALID,919.136,VALID,0,VALID,100,VALID,-0.101885,VALID,18.959,VALID,90,VALID,0.60625,
2004-07-30, 00:08:00,VALID,919.13,VALID,0,VALID,100,VALID,-0.0849042,VALID,18.9751,VALID,110,VALID,0.671689,
2004-07-30, 00:09:00,VALID,919.137,VALID,0,VALID,100,VALID,-0.0849042,VALID,18.9918,VALID,140,VALID,0.637576,
2004-07-30, 00:10:00,VALID,919.126,VALID,0,VALID,100,VALID,-0.0509425,VALID,18.9786,VALID,133,VALID,0.567294,
2004-07-30, 00:11:00,VALID,919.118,VALID,0,VALID,100,VALID,-0.101885,VALID,18.9657,VALID,142,VALID,0.838415,
2004-07-30, 00:12:00,VALID,919.117,VALID,0,VALID,100,VALID,-0.0849042,VALID,18.9751,VALID,147,VALID,0.859738,
2004-07-30, 00:13:00,VALID,919.123,VALID,0,VALID,100,VALID,-0.0509425,VALID,18.9853,VALID,143,VALID,0.935243,
2004-07-30, 00:14:00,VALID,919.125,VALID,0,VALID,100,VALID,-0.0849042,VALID,18.9657,VALID,148,VALID,0.980755,
2004-07-30, 00:15:00,VALID,919.122,VALID,0,VALID,100,VALID,-0.0509425,VALID,18.9431,VALID,153,VALID,0.790931,
2004-07-30, 00:16:00,VALID,919.143,VALID,0,VALID,100,VALID,-0.0849042,VALID,18.9009,VALID,154,VALID,0.74891,
2004-07-30, 00:17:00,VALID,919.161,VALID,0,VALID,100,VALID,-0.0679233,VALID,18.8785,VALID,153,VALID,0.826953,
2004-07-30, 00:18:00,VALID,919.152,VALID,0,VALID,100,VALID,-0.0509425,VALID,18.8584,VALID,154,VALID,0.704033,
2004-07-30, 00:19:00,VALID,919.167,VALID,0,VALID,100,VALID,-0.0679233,VALID,18.8458,VALID,156,VALID,0.259375,
2004-07-30, 00:20:00,VALID,919.154,VALID,0,VALID,100,VALID,-0.0849042,VALID,18.8554,VALID,156,VALID,0.373476,
2004-07-30, 00:21:00,VALID,919.146,VALID,0,VALID,100,VALID,-0.0679233,VALID,18.843,VALID,153,VALID,0.506722,
2004-07-30, 00:22:00,VALID,919.144,VALID,0,VALID,100,VALID,-0.0849042,VALID,18.8261,VALID,151,VALID,0.604353,
2004-07-30, 00:23:00,VALID,919.135,VALID,0,VALID,100,VALID,0.0339617,VALID,18.8247,VALID,154,VALID,0.381669,
2004-07-30, 00:24:00,VALID,919.124,VALID,0,VALID,100,VALID,0.101885,VALID,18.8406,VALID,167,VALID,0.283346,
2004-07-30, 00:25:00,VALID,919.109,VALID,0,VALID,100,VALID,0.0849042,VALID,18.8466,VALID,173,VALID,0.63151,
2004-07-30, 00:26:00,VALID,919.089,VALID,0,VALID,100,VALID,0.0339617,VALID,18.8503,VALID,188,VALID,0.554155,
2004-07-30, 00:27:00,VALID,919.069,VALID,0,VALID,100,VALID,0.0679233,VALID,18.8824,VALID,192,VALID,0.477734,
2004-07-30, 00:28:00,VALID,919.048,VALID,0,VALID,100,VALID,0.0679233,VALID,18.898,VALID,195,VALID,0.647711,
2004-07-30, 00:29:00,VALID,919.039,VALID,0,VALID,100,VALID,0.0339617,VALID,18.931,VALID,193,VALID,0.321646,
2004-07-30, 00:30:00,VALID,919.007,VALID,0,VALID,100,VALID,0.0679233,VALID,18.9435,VALID,193,VALID,0.076029,
2004-07-30, 00:31:00,VALID,918.986,VALID,0,VALID,100,VALID,0.0849042,VALID,18.9529,VALID,192,VALID,0.31468,
2004-07-30, 00:32:00,VALID,918.984,VALID,0,VALID,100,VALID,0.0339617,VALID,18.9596,VALID,173,VALID,0.478237,
2004-07-30, 00:33:00,VALID,918.971,VALID,0,VALID,100,VALID,0.0679233,VALID,18.9723,VALID,174,VALID,0.4016,
2004-07-30, 00:34:00,VALID,918.96,VALID,0,VALID,100,VALID,0.0849042,VALID,18.9661,VALID,176,VALID,0.470117,
2004-07-30, 00:35:00,VALID,918.958,VALID,0,VALID,100,VALID,0.0849042,VALID,18.9561,VALID,175,VALID,0.546165,
2004-07-30, 00:36:00,VALID,918.94,VALID,0,VALID,100,VALID,0.0339617,VALID,18.9531,VALID,172,VALID,0.384233,
2004-07-30, 00:37:00,VALID,918.914,VALID,0,VALID,100,VALID,0.0849042,VALID,18.9499,VALID,168,VALID,0.457564,
2004-07-30, 00:38:00,VALID,918.901,VALID,0,VALID,100,VALID,-0.0169808,VALID,18.964,VALID,157,VALID,0.538517,
2004-07-30, 00:39:00,VALID,918.861,VALID,0,VALID,100,VALID,-0.0169808,VALID,18.9804,VALID,153,VALID,0.687326,
2004-07-30, 00:40:00,VALID,918.826,VALID,0,VALID,100,VALID,-0.0339617,VALID,18.9901,VALID,150,VALID,0.598133,
2004-07-30, 00:41:00,VALID,918.787,VALID,0,VALID,100,VALID,-0.0169808,VALID,19.0092,VALID,139,VALID,0.755682,
2004-07-30, 00:42:00,VALID,918.756,VALID,0,VALID,100,VALID,-0.0169808,VALID,19.0187,VALID,145,VALID,0.908612,
2004-07-30, 00:43:00,VALID,918.73,VALID,0,VALID,100,VALID,0,VALID,19.012,VALID,146,VALID,0.914063,
2004-07-30, 00:44:00,VALID,918.716,VALID,0,VALID,100,VALID,-0.0169808,VALID,19.0251,VALID,137,VALID,0.77111,
2004-07-30, 00:45:00,VALID,918.709,VALID,0,VALID,100,VALID,-0.0169808,VALID,19.0281,VALID,123,VALID,0.846912,
2004-07-30, 00:46:00,VALID,918.705,VALID,0,VALID,100,VALID,-0.0169808,VALID,19.0256,VALID,101,VALID,0.62282,
2004-07-30, 00:47:00,VALID,918.694,VALID,0,VALID,100,VALID,-0.0339617,VALID,19.0152,VALID,87,VALID,0.364644,
2004-07-30, 00:48:00,VALID,918.7,VALID,0,VALID,100,VALID,0,VALID,19.0254,VALID,72,VALID,0.682355,
2004-07-30, 00:49:00,VALID,918.716,VALID,0,VALID,100,VALID,-0.0339617,VALID,19.0187,VALID,68,VALID,0.974964,
2004-07-30, 00:50:00,VALID,918.722,VALID,0,VALID,100,VALID,-0.0169808,VALID,19.0191,VALID,63,VALID,0.871838,
2004-07-30, 00:51:00,VALID,918.72,VALID,0,VALID,100,VALID,0,VALID,19.0152,VALID,65,VALID,0.810213,
2004-07-30, 00:52:00,VALID,918.723,VALID,0,VALID,100,VALID,0,VALID,19.0154,VALID,70,VALID,0.60774,
2004-07-30, 00:53:00,VALID,918.732,VALID,0,VALID,100,VALID,-0.0339617,VALID,19.0291,VALID,70,VALID,0.359933,
2004-07-30, 00:54:00,VALID,918.73,VALID,0,VALID,100,VALID,-0.0509425,VALID,19.002,VALID,70,VALID,0.757813,
2004-07-30, 00:55:00,VALID,918.72,VALID,0,VALID,100,VALID,-0.0339617,VALID,18.9993,VALID,58,VALID,0.825581,
2004-07-30, 00:56:00,VALID,918.716,VALID,0,VALID,100,VALID,-0.0509425,VALID,18.9836,VALID,67,VALID,1.1051,
2004-07-30, 00:57:00,VALID,918.722,VALID,0,VALID,100,VALID,-0.0339617,VALID,18.9546,VALID,82,VALID,0.953307,
2004-07-30, 00:58:00,VALID,918.704,VALID,0,VALID,100,VALID,0,VALID,18.9191,VALID,73,VALID,0.553085,
2004-07-30, 00:59:00,VALID,918.679,VALID,0,VALID,100,VALID,-0.0339617,VALID,18.9054,VALID,69,VALID,0.644336,
2004-07-30, 01:00:00,VALID,918.635,VALID,0,VALID,100,VALID,-0.0339617,VALID,18.8925,VALID,77,VALID,0.659339,
2004-07-30, 01:01:00,VALID,918.603,VALID,0,VALID,100,VALID,-0.0169808,VALID,18.8798,VALID,74,VALID,0.672585,
2004-07-30, 01:02:00,VALID,918.572,VALID,0,VALID,100,VALID,-0.0169808,VALID,18.8769,VALID,84,VALID,0.608984,
2004-07-30, 01:03:00,VALID,918.532,VALID,0,VALID,100,VALID,-0.0169808,VALID,18.8637,VALID,117,VALID,0.672053,
2004-07-30, 01:04:00,VALID,918.505,VALID,0,VALID,100,VALID,-0.0169808,VALID,18.8446,VALID,121,VALID,0.738186,
2004-07-30, 01:05:00,VALID,918.472,VALID,0,VALID,100,VALID,-0.0169808,VALID,18.8284,VALID,125,VALID,0.540179,
2004-07-30, 01:06:00,VALID,918.454,VALID,0,VALID,100,VALID,0,VALID,18.8155,VALID,129,VALID,0.528773,
2004-07-30, 01:07:00,VALID,918.44,VALID,0,VALID,100,VALID,-0.0339617,VALID,18.7991,VALID,143,VALID,0.638393,
2004-07-30, 01:08:00,VALID,918.428,VALID,0,VALID,100,VALID,-0.0679233,VALID,18.78,VALID,130,VALID,0.607922,
2004-07-30, 01:09:00,VALID,918.408,VALID,0,VALID,100,VALID,-0.0339617,VALID,18.7542,VALID,113,VALID,0.910156,
2004-07-30, 01:10:00,VALID,918.391,VALID,0,VALID,100,VALID,-0.0339617,VALID,18.7442,VALID,102,VALID,0.788281,
2004-07-30, 01:11:00,VALID,918.378,VALID,0,VALID,100,VALID,-0.0339617,VALID,18.7219,VALID,89,VALID,0.645952,
2004-07-30, 01:12:00,VALID,918.375,VALID,0,VALID,100,VALID,0,VALID,18.7152,VALID,103,VALID,0.917259,
2004-07-30, 01:13:00,VALID,918.382,VALID,0,VALID,100,VALID,-0.0509425,VALID,18.7251,VALID,113,VALID,1.11476,
2004-07-30, 01:14:00,VALID,918.383,VALID,0,VALID,100,VALID,-0.0339617,VALID,18.7152,VALID,117,VALID,0.929492,
2004-07-30, 01:15:00,VALID,918.367,VALID,0,VALID,100,VALID,-0.0339617,VALID,18.7253,VALID,120,VALID,0.507813,
2004-07-30, 01:16:00,VALID,918.366,VALID,0,VALID,100,VALID,-0.0339617,VALID,18.7256,VALID,141,VALID,0.810268,
2004-07-30, 01:17:00,VALID,918.363,VALID,0,VALID,100,VALID,-0.0339617,VALID,18.7157,VALID,124,VALID,0.584666,
2004-07-30, 01:18:00,VALID,918.356,VALID,0,VALID,100,VALID,-0.0849042,VALID,18.7094,VALID,134,VALID,0.837358,
2004-07-30, 01:19:00,VALID,918.342,VALID,0,VALID,100,VALID,-0.0679233,VALID,18.7094,VALID,145,VALID,0.729288,
2004-07-30, 01:20:00,VALID,918.331,VALID,0,VALID,100,VALID,-0.0169808,VALID,18.6998,VALID,139,VALID,0.691501,
2004-07-30, 01:21:00,VALID,918.326,VALID,0,VALID,100,VALID,-0.0169808,VALID,18.6864,VALID,139,VALID,0.826029,
2004-07-30, 01:22:00,VALID,918.323,VALID,0,VALID,100,VALID,-0.0509425,VALID,18.6866,VALID,131,VALID,0.483817,
2004-07-30, 01:23:00,VALID,918.315,VALID,0,VALID,100,VALID,-0.0849042,VALID,18.6878,VALID,131,VALID,0.354611,
2004-07-30, 01:24:00,VALID,918.298,VALID,0,VALID,100,VALID,-0.101885,VALID,18.6816,VALID,131,VALID,0.276526,
2004-07-30, 01:25:00,VALID,918.284,VALID,0,VALID,100,VALID,-0.0679233,VALID,18.6642,VALID,128,VALID,0.515053,
2004-07-30, 01:26:00,VALID,918.272,VALID,0,VALID,100,VALID,-0.101885,VALID,18.6818,VALID,126,VALID,0.373047,
2004-07-30, 01:27:00,VALID,918.254,VALID,0,VALID,100,VALID,-0.101885,VALID,18.6746,VALID,126,VALID,0.484003,
2004-07-30, 01:28:00,VALID,918.254,VALID,0,VALID,100,VALID,-0.0509425,VALID,18.6779,VALID,128,VALID,0.546512,
2004-07-30, 01:29:00,VALID,918.236,VALID,0,VALID,100,VALID,-0.101885,VALID,18.6846,VALID,129,VALID,0.737043,
2004-07-30, 01:30:00,VALID,918.235,VALID,0,VALID,100,VALID,-0.101885,VALID,18.6878,VALID,128,VALID,0.616797,
2004-07-30, 01:31:00,VALID,918.234,VALID,0,VALID,100,VALID,-0.101885,VALID,18.7005,VALID,128,VALID,0.721977,
2004-07-30, 01:32:00,VALID,918.221,VALID,0,VALID,100,VALID,-0.101885,VALID,18.6942,VALID,124,VALID,0.661519,
2004-07-30, 01:33:00,VALID,918.231,VALID,0,VALID,100,VALID,-0.118866,VALID,18.6975,VALID,113,VALID,0.442765,
2004-07-30, 01:34:00,VALID,918.213,VALID,0,VALID,100,VALID,-0.101885,VALID,18.694,VALID,109,VALID,0.323475,
2004-07-30, 01:35:00,VALID,918.194,VALID,0,VALID,100,VALID,-0.101885,VALID,18.697,VALID,114,VALID,0.66282,
2004-07-30, 01:36:00,VALID,918.167,VALID,0,VALID,100,VALID,-0.118866,VALID,18.6972,VALID,113,VALID,0.794876,
2004-07-30, 01:37:00,VALID,918.151,VALID,0,VALID,100,VALID,-0.0849042,VALID,18.7134,VALID,121,VALID,0.842478,
2004-07-30, 01:38:00,VALID,918.125,VALID,0,VALID,100,VALID,0,VALID,18.7348,VALID,116,VALID,0.841264,
2004-07-30, 01:39:00,VALID,918.1,VALID,0,VALID,100,VALID,0,VALID,18.7244,VALID,118,VALID,0.702762,
2004-07-30, 01:40:00,VALID,918.097,VALID,0,VALID,100,VALID,-0.0339617,VALID,18.7477,VALID,119,VALID,0.59157,
2004-07-30, 01:41:00,VALID,918.082,VALID,0,VALID,100,VALID,0,VALID,18.7542,VALID,90,VALID,0.37207,
2004-07-30, 01:42:00,VALID,918.071,VALID,0,VALID,100,VALID,0.0339617,VALID,18.7537,VALID,43,VALID,0.599077,
2004-07-30, 01:43:00,VALID,918.048,VALID,0,VALID,100,VALID,0.0169808,VALID,18.7447,VALID,62,VALID,0.8125,
2004-07-30, 01:44:00,VALID,918.053,VALID,0,VALID,100,VALID,0.0169808,VALID,18.732,VALID,70,VALID,0.858984,
2004-07-30, 01:45:00,VALID,918.033,VALID,0,VALID,100,VALID,0.0339617,VALID,18.715,VALID,84,VALID,1.03163,
2004-07-30, 01:46:00,VALID,918.016,VALID,0,VALID,100,VALID,0.0169808,VALID,18.7216,VALID,90,VALID,1.08812,
2004-07-30, 01:47:00,VALID,918.013,VALID,0,VALID,100,VALID,0,VALID,18.7509,VALID,95,VALID,1.09197,
2004-07-30, 01:48:00,VALID,918.006,VALID,0,VALID,100,VALID,0,VALID,18.7636,VALID,97,VALID,0.96513,
2004-07-30, 01:49:00,VALID,918.002,VALID,0,VALID,100,VALID,0,VALID,18.7346,VALID,99,VALID,1.35723,
2004-07-30, 01:50:00,VALID,918.002,VALID,0,VALID,100,VALID,0,VALID,18.7092,VALID,107,VALID,1.15699,
2004-07-30, 01:51:00,VALID,917.986,VALID,0,VALID,100,VALID,0.0169808,VALID,18.6824,VALID,112,VALID,0.915923,
2004-07-30, 01:52:00,VALID,917.967,VALID,0,VALID,100,VALID,-0.0169808,VALID,18.6702,VALID,116,VALID,1.04307,
2004-07-30, 01:53:00,VALID,917.957,VALID,0,VALID,100,VALID,0,VALID,18.6642,VALID,113,VALID,0.997283,
2004-07-30, 01:54:00,VALID,917.934,VALID,0,VALID,100,VALID,-0.0169808,VALID,18.6509,VALID,114,VALID,0.774182,
2004-07-30, 01:55:00,VALID,917.929,VALID,0,VALID,100,VALID,0,VALID,18.6379,VALID,119,VALID,1.13354,
2004-07-30, 01:56:00,VALID,917.925,VALID,0,VALID,100,VALID,0,VALID,18.6416,VALID,126,VALID,1.07949,
2004-07-30, 01:57:00,VALID,917.932,VALID,0,VALID,100,VALID,-0.0169808,VALID,18.6384,VALID,120,VALID,0.898438,
2004-07-30, 01:58:00,VALID,917.924,VALID,0,VALID,100,VALID,0,VALID,18.622,VALID,111,VALID,0.972751,
2004-07-30, 01:59:00,VALID,917.913,VALID,0,VALID,100,VALID,-0.0169808,VALID,18.6029,VALID,119,VALID,1.21298,
2004-07-30, 02:00:00,VALID,917.905,VALID,0,VALID,100,VALID,-0.0339617,VALID,18.5997,VALID,121,VALID,1.29985,
2004-07-30, 02:01:00,VALID,917.88,VALID,0,VALID,100,VALID,-0.0169808,VALID,18.593,VALID,128,VALID,0.818105,
2004-07-30, 02:02:00,VALID,917.87,VALID,0,VALID,100,VALID,-0.0339617,VALID,18.6001,VALID,133,VALID,1.22377,
2004-07-30, 02:03:00,VALID,917.85,VALID,0,VALID,100,VALID,-0.0169808,VALID,18.5771,VALID,125,VALID,1.66482,
2004-07-30, 02:04:00,VALID,917.825,VALID,0,VALID,100,VALID,-0.0169808,VALID,18.5771,VALID,117,VALID,0.789253,
2004-07-30, 02:05:00,VALID,917.808,VALID,0,VALID,100,VALID,-0.0339617,VALID,18.5706,VALID,104,VALID,0.726918,
2004-07-30, 02:06:00,VALID,917.803,VALID,0,VALID,100,VALID,0,VALID,18.5515,VALID,111,VALID,0.814931,
2004-07-30, 02:07:00,VALID,917.779,VALID,0,VALID,100,VALID,0,VALID,18.5413,VALID,113,VALID,0.995908,
2004-07-30, 02:08:00,VALID,917.762,VALID,0,VALID,100,VALID,-0.0169808,VALID,18.5388,VALID,94,VALID,1.02195,
2004-07-30, 02:09:00,VALID,917.743,VALID,0,VALID,100,VALID,0,VALID,18.5155,VALID,108,VALID,1.09635,
2004-07-30, 02:10:00,VALID,917.719,VALID,0,VALID,100,VALID,-0.0169808,VALID,18.516,VALID,118,VALID,1.36519,
2004-07-30, 02:11:00,VALID,917.713,VALID,0,VALID,100,VALID,-0.0339617,VALID,18.5061,VALID,119,VALID,1.613,
2004-07-30, 02:12:00,VALID,917.705,VALID,0,VALID,100,VALID,-0.0339617,VALID,18.4964,VALID,129,VALID,1.20331,
2004-07-30, 02:13:00,VALID,917.692,VALID,0,VALID,100,VALID,0,VALID,18.4994,VALID,116,VALID,1.07999,
2004-07-30, 02:14:00,VALID,917.675,VALID,0,VALID,100,VALID,-0.0169808,VALID,18.4802,VALID,116,VALID,0.753162,
2004-07-30, 02:15:00,VALID,917.649,VALID,0,VALID,100,VALID,-0.0339617,VALID,18.477,VALID,135,VALID,0.697856,
2004-07-30, 02:16:00,VALID,917.636,VALID,0,VALID,100,VALID,0,VALID,18.4641,VALID,132,VALID,1.05176,
2004-07-30, 02:17:00,VALID,917.614,VALID,0,VALID,100,VALID,0,VALID,18.4673,VALID,131,VALID,1.25684,
2004-07-30, 02:18:00,VALID,917.578,VALID,0,VALID,100,VALID,0,VALID,18.4606,VALID,125,VALID,1.18732,
2004-07-30, 02:19:00,VALID,917.553,VALID,0,VALID,100,VALID,-0.0169808,VALID,18.4576,VALID,121,VALID,1.35156,
2004-07-30, 02:20:00,VALID,917.534,VALID,0,VALID,100,VALID,0,VALID,18.4641,VALID,126,VALID,1.51908,
2004-07-30, 02:21:00,VALID,917.508,VALID,0,VALID,100,VALID,-0.0169808,VALID,18.4574,VALID,118,VALID,1.54578,
2004-07-30, 02:22:00,VALID,917.491,VALID,0,VALID,100,VALID,0,VALID,18.4514,VALID,105,VALID,1.2673,
2004-07-30, 02:23:00,VALID,917.484,VALID,0,VALID,100,VALID,-0.0169808,VALID,18.442,VALID,86,VALID,0.740513,
2004-07-30, 02:24:00,VALID,917.466,VALID,0,VALID,100,VALID,0,VALID,18.4286,VALID,108,VALID,0.791667,
2004-07-30, 02:25:00,VALID,917.451,VALID,0,VALID,100,VALID,0.0169808,VALID,18.4219,VALID,111,VALID,1.2939,
2004-07-30, 02:26:00,VALID,917.436,VALID,0,VALID,100,VALID,0,VALID,18.4092,VALID,113,VALID,0.817042,
2004-07-30, 02:27:00,VALID,917.436,VALID,0,VALID,100,VALID,-0.0339617,VALID,18.406,VALID,120,VALID,1.55059,
2004-07-30, 02:28:00,VALID,917.423,VALID,0,VALID,100,VALID,0,VALID,18.3933,VALID,127,VALID,1.502,
2004-07-30, 02:29:00,VALID,917.422,VALID,0,VALID,100,VALID,-0.0169808,VALID,18.4101,VALID,121,VALID,1.3306,
2004-07-30, 02:30:00,VALID,917.406,VALID,0,VALID,100,VALID,0,VALID,18.3958,VALID,126,VALID,1.39123,
2004-07-30, 02:31:00,VALID,917.396,VALID,0,VALID,100,VALID,-0.0169808,VALID,18.4131,VALID,122,VALID,1.10766,
2004-07-30, 02:32:00,VALID,917.374,VALID,0,VALID,100,VALID,-0.0169808,VALID,18.3963,VALID,126,VALID,0.8375,
2004-07-30, 02:33:00,VALID,917.362,VALID,0,VALID,100,VALID,-0.0169808,VALID,18.4064,VALID,119,VALID,1.2394,
2004-07-30, 02:34:00,VALID,917.33,VALID,0,VALID,100,VALID,-0.0169808,VALID,18.4,VALID,126,VALID,1.04074,
2004-07-30, 02:35:00,VALID,917.32,VALID,0,VALID,100,VALID,0,VALID,18.3933,VALID,120,VALID,0.886161,
2004-07-30, 02:36:00,VALID,917.284,VALID,0,VALID,100,VALID,0,VALID,18.4064,VALID,135,VALID,1.40752,
2004-07-30, 02:37:00,VALID,917.277,VALID,0,VALID,100,VALID,0,VALID,18.3965,VALID,123,VALID,1.1635,
2004-07-30, 02:38:00,VALID,917.259,VALID,0,VALID,100,VALID,0,VALID,18.3868,VALID,134,VALID,1.27827,
2004-07-30, 02:39:00,VALID,917.236,VALID,0,VALID,100,VALID,0,VALID,18.3901,VALID,130,VALID,0.88681,
2004-07-30, 02:40:00,VALID,917.233,VALID,0,VALID,100,VALID,0,VALID,18.3838,VALID,137,VALID,0.992759,
2004-07-30, 02:41:00,VALID,917.214,VALID,0,VALID,100,VALID,-0.0169808,VALID,18.3769,VALID,121,VALID,0.622396,
2004-07-30, 02:42:00,VALID,917.192,VALID,0,VALID,100,VALID,-0.0509425,VALID,18.3808,VALID,155,VALID,0.882622,
2004-07-30, 02:43:00,VALID,917.18,VALID,0,VALID,100,VALID,-0.0169808,VALID,18.3935,VALID,133,VALID,0.950694,
2004-07-30, 02:44:00,VALID,917.158,VALID,0,VALID,100,VALID,-0.0169808,VALID,18.4,VALID,140,VALID,1.09457,
2004-07-30, 02:45:00,VALID,917.153,VALID,0,VALID,100,VALID,-0.0169808,VALID,18.397,VALID,148,VALID,1.28089,
2004-07-30, 02:46:00,VALID,917.128,VALID,0,VALID,100,VALID,0,VALID,18.3998,VALID,142,VALID,1.09055,
2004-07-30, 02:47:00,VALID,917.115,VALID,0,VALID,100,VALID,0,VALID,18.4064,VALID,126,VALID,0.677379,
2004-07-30, 02:48:00,VALID,917.081,VALID,0,VALID,100,VALID,-0.0169808,VALID,18.3995,VALID,143,VALID,1.28925,
2004-07-30, 02:49:00,VALID,917.087,VALID,0,VALID,100,VALID,-0.0169808,VALID,18.4129,VALID,142,VALID,0.903161,
2004-07-30, 02:50:00,VALID,917.074,VALID,0,VALID,100,VALID,-0.0679233,VALID,18.4069,VALID,156,VALID,0.636347,
2004-07-30, 02:51:00,VALID,917.055,VALID,0,VALID,100,VALID,-0.0169808,VALID,18.3968,VALID,127,VALID,1.03551,
2004-07-30, 02:52:00,VALID,917.04,VALID,0,VALID,100,VALID,0.0169808,VALID,18.4002,VALID,131,VALID,0.584896,
2004-07-30, 02:53:00,VALID,917.028,VALID,0,VALID,100,VALID,-0.0169808,VALID,18.397,VALID,104,VALID,0.711115,
2004-07-30, 02:54:00,VALID,917.02,VALID,0,VALID,100,VALID,-0.0509425,VALID,18.3778,VALID,94,VALID,1.07177,
2004-07-30, 02:55:00,VALID,917.019,VALID,0,VALID,100,VALID,-0.0169808,VALID,18.3744,VALID,104,VALID,1.03735,
2004-07-30, 02:56:00,VALID,917.017,VALID,0,VALID,100,VALID,-0.0169808,VALID,18.3712,VALID,111,VALID,0.743786,
2004-07-30, 02:57:00,VALID,917.003,VALID,0,VALID,100,VALID,0,VALID,18.3712,VALID,116,VALID,0.828711,
2004-07-30, 02:58:00,VALID,916.984,VALID,0,VALID,100,VALID,-0.0169808,VALID,18.3938,VALID,123,VALID,1.01004,
2004-07-30, 02:59:00,VALID,916.982,VALID,0,VALID,100,VALID,-0.0339617,VALID,18.4032,VALID,127,VALID,0.972147,
2004-07-30, 03:00:00,VALID,916.965,VALID,0,VALID,100,VALID,-0.0339617,VALID,18.4094,VALID,123,VALID,1.23189,
2004-07-30, 03:01:00,VALID,916.961,VALID,0,VALID,100,VALID,-0.0169808,VALID,18.4228,VALID,125,VALID,1.19913,
2004-07-30, 03:02:00,VALID,916.958,VALID,0,VALID,100,VALID,-0.0339617,VALID,18.4293,VALID,126,VALID,1.28025,
2004-07-30, 03:03:00,VALID,916.954,VALID,0,VALID,100,VALID,0,VALID,18.4426,VALID,126,VALID,1.08894,
2004-07-30, 03:04:00,VALID,916.95,VALID,0,VALID,100,VALID,-0.0169808,VALID,18.4422,VALID,132,VALID,1.33213,
2004-07-30, 03:05:00,VALID,916.95,VALID,0,VALID,100,VALID,0,VALID,18.4616,VALID,130,VALID,0.955357,
2004-07-30, 03:06:00,VALID,916.941,VALID,0,VALID,100,VALID,-0.0339617,VALID,18.4646,VALID,131,VALID,1.20294,
2004-07-30, 03:07:00,VALID,916.94,VALID,0,VALID,100,VALID,0,VALID,18.4812,VALID,135,VALID,1.26914,
2004-07-30, 03:08:00,VALID,916.949,VALID,0,VALID,100,VALID,-0.0339617,VALID,18.4812,VALID,130,VALID,0.983665,
2004-07-30, 03:09:00,VALID,916.938,VALID,0,VALID,100,VALID,-0.0339617,VALID,18.4805,VALID,149,VALID,1.17612,
2004-07-30, 03:10:00,VALID,916.932,VALID,0,VALID,100,VALID,0,VALID,18.5003,VALID,150,VALID,1.3484,
2004-07-30, 03:11:00,VALID,916.924,VALID,0,VALID,100,VALID,0,VALID,18.4966,VALID,147,VALID,1.21652,
2004-07-30, 03:12:00,VALID,916.904,VALID,0,VALID,100,VALID,0,VALID,18.5038,VALID,154,VALID,1.31146,
2004-07-30, 03:13:00,VALID,916.907,VALID,0,VALID,100,VALID,-0.0339617,VALID,18.5134,VALID,143,VALID,1.33394,
2004-07-30, 03:14:00,VALID,916.893,VALID,0,VALID,100,VALID,0.0169808,VALID,18.5003,VALID,147,VALID,1.38145,
2004-07-30, 03:15:00,VALID,916.879,VALID,0,VALID,100,VALID,-0.0169808,VALID,18.4901,VALID,145,VALID,1.31136,
2004-07-30, 03:16:00,VALID,916.852,VALID,0,VALID,100,VALID,0,VALID,18.4934,VALID,143,VALID,1.09925,
2004-07-30, 03:17:00,VALID,916.844,VALID,0,VALID,100,VALID,0,VALID,18.48,VALID,150,VALID,1.24833,
2004-07-30, 03:18:00,VALID,916.84,VALID,0,VALID,100,VALID,0,VALID,18.4777,VALID,153,VALID,1.01067,
2004-07-30, 03:19:00,VALID,916.838,VALID,0,VALID,100,VALID,0,VALID,18.471,VALID,146,VALID,1.0385,
2004-07-30, 03:20:00,VALID,916.82,VALID,0,VALID,100,VALID,0,VALID,18.4613,VALID,148,VALID,1.31064,
2004-07-30, 03:21:00,VALID,916.806,VALID,0,VALID,100,VALID,0,VALID,18.4643,VALID,146,VALID,1.38338,
2004-07-30, 03:22:00,VALID,916.815,VALID,0,VALID,100,VALID,-0.0339617,VALID,18.4581,VALID,134,VALID,1.17057,
2004-07-30, 03:23:00,VALID,916.81,VALID,0,VALID,100,VALID,-0.101885,VALID,18.4521,VALID,137,VALID,1.15556,
2004-07-30, 03:24:00,VALID,916.818,VALID,0,VALID,100,VALID,-0.118866,VALID,18.4429,VALID,145,VALID,0.855469,
2004-07-30, 03:25:00,VALID,916.814,VALID,0,VALID,100,VALID,-0.118866,VALID,18.4367,VALID,151,VALID,1.20512,
2004-07-30, 03:26:00,VALID,916.807,VALID,0,VALID,100,VALID,-0.118866,VALID,18.4302,VALID,146,VALID,1.19241,
2004-07-30, 03:27:00,VALID,916.81,VALID,0,VALID,100,VALID,-0.101885,VALID,18.4371,VALID,141,VALID,1.12079,
2004-07-30, 03:28:00,VALID,916.815,VALID,0,VALID,100,VALID,-0.101885,VALID,18.4237,VALID,150,VALID,1.20531,
2004-07-30, 03:29:00,VALID,916.801,VALID,0,VALID,100,VALID,-0.0509425,VALID,18.4004,VALID,145,VALID,1.4217,
2004-07-30, 03:30:00,VALID,916.802,VALID,0,VALID,100,VALID,-0.0849042,VALID,18.4175,VALID,140,VALID,1.14323,
2004-07-30, 03:31:00,VALID,916.776,VALID,0,VALID,100,VALID,-0.118866,VALID,18.4108,VALID,152,VALID,0.939303,
2004-07-30, 03:32:00,VALID,916.754,VALID,0,VALID,100,VALID,-0.101885,VALID,18.4111,VALID,135,VALID,1.21786,
2004-07-30, 03:33:00,VALID,916.757,VALID,0,VALID,100,VALID,-0.101885,VALID,18.4141,VALID,138,VALID,0.92066,
2004-07-30, 03:34:00,VALID,916.739,VALID,0,VALID,100,VALID,-0.118866,VALID,18.4108,VALID,143,VALID,1.04859,
2004-07-30, 03:35:00,VALID,916.74,VALID,0,VALID,100,VALID,-0.101885,VALID,18.4138,VALID,145,VALID,1.32899,
2004-07-30, 03:36:00,VALID,916.732,VALID,0,VALID,100,VALID,-0.0849042,VALID,18.4106,VALID,143,VALID,1.54554,
2004-07-30, 03:37:00,VALID,916.732,VALID,0,VALID,100,VALID,-0.101885,VALID,18.4166,VALID,157,VALID,1.03813,
2004-07-30, 03:38:00,VALID,916.726,VALID,0,VALID,100,VALID,-0.101885,VALID,18.4166,VALID,123,VALID,1.16552,
2004-07-30, 03:39:00,VALID,916.715,VALID,0,VALID,100,VALID,-0.101885,VALID,18.4237,VALID,148,VALID,1.19638,
2004-07-30, 03:40:00,VALID,916.697,VALID,0,VALID,100,VALID,-0.101885,VALID,18.4332,VALID,138,VALID,0.958629,